• în România
  • Lista ţărilor
  • Pe 7 zile
  • Temperatura apei
  • Hartă satelitară
  • Meteo pe hartă
  • Widget-uri
  • user-avatar
    Intrare

    Meteo pe oră la Pushkino

    Astăzi, 25 Iunie, Luni

    Timp Temperatura Precipitaţii Vânt Presiune Umiditate
    00:00 +25°C° 0 mm 3 m/s 754 mmHg 54%
    01:00 +24°C° 0 mm 3 m/s 754 mmHg 55%
    02:00 +23°C° 0 mm 2 m/s 754 mmHg 56%
    03:00 +23°C° 0 mm 1 m/s 754 mmHg 58%
    04:00 +24°C° 0 mm 1 m/s 755 mmHg 58%
    05:00 +24°C° 0 mm 2 m/s 755 mmHg 58%
    06:00 +25°C° 0 mm 2 m/s 755 mmHg 58%
    07:00 +27°C° 0 mm 2 m/s 755 mmHg 53%
    08:00 +29°C° 0 mm 2 m/s 756 mmHg 48%
    09:00 +31°C° 0 mm 2 m/s 756 mmHg 42%
    10:00 +32°C° 0 mm 2 m/s 756 mmHg 39%
    11:00 +34°C° 0 mm 2 m/s 756 mmHg 36%
    12:00 +35°C° 0 mm 2 m/s 756 mmHg 33%
    13:00 +36°C° 0 mm 2 m/s 756 mmHg 31%
    14:00 +35°C° 0 mm 1 m/s 756 mmHg 29%
    15:00 +35°C° 0 mm 1 m/s 756 mmHg 27%
    16:00 +35°C° 0 mm 1 m/s 755 mmHg 30%
    17:00 +35°C° 0 mm 2 m/s 755 mmHg 34%
    18:00 +35°C° 0 mm 2 m/s 755 mmHg 37%
    19:00 +32°C° 0 mm 2 m/s 755 mmHg 42%
    20:00 +29°C° 0 mm 2 m/s 756 mmHg 46%
    21:00 +27°C° 0 mm 2 m/s 756 mmHg 51%
    22:00 +27°C° 0 mm 2 m/s 756 mmHg 54%
    23:00 +26°C° 0 mm 2 m/s 756 mmHg 57%

    Mâine, 26 Iunie, Marţi

    Timp Temperatura Precipitaţii Vânt Presiune Umiditate
    00:00 +25°C° 0 mm 2 m/s 756 mmHg 60%
    01:00 +25°C° 0 mm 2 m/s 756 mmHg 61%
    02:00 +24°C° 0 mm 2 m/s 756 mmHg 62%
    03:00 +24°C° 0 mm 1 m/s 756 mmHg 63%
    04:00 +24°C° 0 mm 2 m/s 756 mmHg 62%
    05:00 +25°C° 0 mm 2 m/s 756 mmHg 61%
    06:00 +26°C° 0 mm 2 m/s 756 mmHg 60%
    07:00 +28°C° 0 mm 2 m/s 756 mmHg 54%
    08:00 +30°C° 0 mm 2 m/s 756 mmHg 49%
    09:00 +31°C° 0 mm 3 m/s 756 mmHg 43%
    10:00 +33°C° 0 mm 3 m/s 756 mmHg 41%
    11:00 +35°C° 0 mm 3 m/s 756 mmHg 38%
    12:00 +36°C° 0 mm 3 m/s 756 mmHg 36%
    13:00 +36°C° 0 mm 3 m/s 756 mmHg 35%
    14:00 +36°C° 0 mm 3 m/s 756 mmHg 34%
    15:00 +36°C° 0 mm 3 m/s 756 mmHg 33%
    16:00 +36°C° 0 mm 3 m/s 755 mmHg 37%
    17:00 +35°C° 0 mm 3 m/s 755 mmHg 41%
    18:00 +35°C° 0 mm 3 m/s 755 mmHg 45%
    19:00 +33°C° 0 mm 3 m/s 755 mmHg 48%
    20:00 +30°C° 0 mm 2 m/s 756 mmHg 52%
    21:00 +28°C° 0 mm 2 m/s 756 mmHg 55%
    22:00 +27°C° 0,3 mm 3 m/s 756 mmHg 60%
    23:00 +26°C° 0,3 mm 4 m/s 756 mmHg 66%

    Poimâine, 27 Iunie, Miercuri

    Timp Temperatura Precipitaţii Vânt Presiune Umiditate
    00:00 +25°C° 0,3 mm 5 m/s 756 mmHg 71%
    01:00 +23°C° 0 mm 4 m/s 756 mmHg 74%
    02:00 +23°C° 0 mm 4 m/s 756 mmHg 78%
    03:00 +22°C° 0 mm 3 m/s 756 mmHg 81%
    04:00 +24°C° 0,2 mm 3 m/s 756 mmHg 79%
    05:00 +24°C° 0,2 mm 3 m/s 756 mmHg 77%
    06:00 +25°C° 0,2 mm 3 m/s 756 mmHg 75%
    07:00 +27°C° 0 mm 3 m/s 756 mmHg 69%
    08:00 +28°C° 0 mm 3 m/s 756 mmHg 63%
    09:00 +30°C° 0 mm 3 m/s 756 mmHg 57%
    10:00 +32°C° 0 mm 4 m/s 756 mmHg 53%
    11:00 +33°C° 0 mm 4 m/s 756 mmHg 48%
    12:00 +34°C° 0 mm 4 m/s 756 mmHg 44%
    13:00 +34°C° 0 mm 4 m/s 755 mmHg 43%
    14:00 +34°C° 0 mm 4 m/s 755 mmHg 43%
    15:00 +34°C° 0 mm 4 m/s 755 mmHg 42%
    16:00 +34°C° 0 mm 4 m/s 755 mmHg 45%
    17:00 +33°C° 0 mm 4 m/s 755 mmHg 49%
    18:00 +32°C° 0 mm 4 m/s 755 mmHg 53%
    19:00 +30°C° 0,1 mm 4 m/s 755 mmHg 59%
    20:00 +28°C° 0,1 mm 4 m/s 755 mmHg 66%
    21:00 +26°C° 0,1 mm 4 m/s 755 mmHg 73%
    22:00 +25°C° 0 mm 3 m/s 755 mmHg 76%
    23:00 +25°C° 0 mm 3 m/s 755 mmHg 79%

    28 Iunie, Joi

    Timp Temperatura Precipitaţii Vânt Presiune Umiditate
    00:00 +24°C° 0 mm 3 m/s 755 mmHg 83%
    01:00 +24°C° 0 mm 3 m/s 755 mmHg 84%
    02:00 +22°C° 0 mm 3 m/s 755 mmHg 86%
    03:00 +21°C° 0 mm 3 m/s 755 mmHg 88%
    04:00 +22°C° 0 mm 4 m/s 755 mmHg 83%
    05:00 +22°C° 0 mm 4 m/s 756 mmHg 79%
    06:00 +23°C° 0 mm 5 m/s 756 mmHg 74%
    07:00 +25°C° 0 mm 5 m/s 756 mmHg 68%
    08:00 +27°C° 0 mm 5 m/s 756 mmHg 63%
    09:00 +28°C° 0 mm 5 m/s 756 mmHg 57%
    10:00 +29°C° 0 mm 5 m/s 755 mmHg 54%
    11:00 +30°C° 0 mm 5 m/s 755 mmHg 51%
    12:00 +32°C° 0 mm 5 m/s 755 mmHg 49%
    13:00 +32°C° 0 mm 5 m/s 755 mmHg 48%
    14:00 +32°C° 0 mm 6 m/s 755 mmHg 48%
    15:00 +32°C° 0 mm 6 m/s 754 mmHg 48%
    16:00 +32°C° 0 mm 6 m/s 755 mmHg 50%
    17:00 +30°C° 0 mm 5 m/s 755 mmHg 53%
    18:00 +29°C° 0 mm 5 m/s 755 mmHg 56%
    19:00 +28°C° 0 mm 5 m/s 755 mmHg 60%
    20:00 +26°C° 0 mm 4 m/s 755 mmHg 65%
    21:00 +23°C° 0 mm 4 m/s 755 mmHg 69%
    22:00 +22°C° 0 mm 4 m/s 755 mmHg 71%
    23:00 +21°C° 0 mm 4 m/s 755 mmHg 73%

    29 Iunie, Vineri

    Timp Temperatura Precipitaţii Vânt Presiune Umiditate
    00:00 +20°C° 0 mm 3 m/s 755 mmHg 74%
    01:00 +20°C° 0 mm 3 m/s 755 mmHg 75%
    02:00 +19°C° 0 mm 3 m/s 755 mmHg 76%
    03:00 +18°C° 0 mm 3 m/s 755 mmHg 76%
    04:00 +19°C° 0 mm 4 m/s 755 mmHg 74%
    05:00 +20°C° 0 mm 4 m/s 755 mmHg 72%
    06:00 +20°C° 0 mm 4 m/s 755 mmHg 70%
    07:00 +22°C° 0 mm 4 m/s 755 mmHg 64%
    08:00 +25°C° 0 mm 4 m/s 755 mmHg 58%
    09:00 +27°C° 0 mm 4 m/s 755 mmHg 53%
    10:00 +28°C° 0 mm 4 m/s 755 mmHg 48%
    11:00 +29°C° 0 mm 4 m/s 754 mmHg 43%
    12:00 +30°C° 0 mm 3 m/s 754 mmHg 38%
    13:00 +30°C° 0 mm 3 m/s 754 mmHg 36%
    14:00 +30°C° 0 mm 3 m/s 753 mmHg 35%
    15:00 +31°C° 0 mm 3 m/s 753 mmHg 34%
    16:00 +30°C° 0 mm 3 m/s 753 mmHg 37%
    17:00 +30°C° 0 mm 3 m/s 753 mmHg 40%
    18:00 +29°C° 0 mm 2 m/s 753 mmHg 43%
    19:00 +28°C° 0 mm 3 m/s 753 mmHg 49%
    20:00 +26°C° 0 mm 3 m/s 753 mmHg 54%
    21:00 +24°C° 0 mm 3 m/s 753 mmHg 60%
    22:00 +22°C° 0 mm 3 m/s 752 mmHg 63%
    23:00 +21°C° 0 mm 3 m/s 752 mmHg 66%

    30 Iunie, Sâmbătă

    Timp Temperatura Precipitaţii Vânt Presiune Umiditate
    00:00 +21°C° 0 mm 3 m/s 752 mmHg 70%
    01:00 +20°C° 0 mm 3 m/s 752 mmHg 71%
    02:00 +20°C° 0 mm 3 m/s 752 mmHg 72%
    03:00 +19°C° 0 mm 2 m/s 752 mmHg 74%
    04:00 +20°C° 0 mm 3 m/s 752 mmHg 71%
    05:00 +21°C° 0 mm 3 m/s 752 mmHg 69%
    06:00 +22°C° 0 mm 3 m/s 752 mmHg 67%
    07:00 +25°C° 0 mm 3 m/s 752 mmHg 61%
    08:00 +27°C° 0 mm 3 m/s 752 mmHg 55%
    09:00 +29°C° 0 mm 3 m/s 752 mmHg 48%
    10:00 +30°C° 0 mm 3 m/s 751 mmHg 43%
    11:00 +31°C° 0 mm 3 m/s 751 mmHg 38%
    12:00 +33°C° 0 mm 3 m/s 750 mmHg 33%
    13:00 +34°C° 0 mm 3 m/s 750 mmHg 32%
    14:00 +34°C° 0 mm 3 m/s 750 mmHg 30%
    15:00 +35°C° 0 mm 3 m/s 749 mmHg 28%
    16:00 +35°C° 0 mm 3 m/s 749 mmHg 31%
    17:00 +34°C° 0 mm 2 m/s 748 mmHg 33%
    18:00 +34°C° 0 mm 2 m/s 748 mmHg 36%
    19:00 +31°C° 0 mm 3 m/s 747 mmHg 37%
    20:00 +30°C° 0 mm 4 m/s 746 mmHg 39%
    21:00 +28°C° 0 mm 5 m/s 746 mmHg 41%
    22:00 +27°C° 0,3 mm 4 m/s 745 mmHg 44%
    23:00 +26°C° 0,3 mm 4 m/s 745 mmHg 48%
    Arată mai mult